This is the latest recevied weather packets stored in our database for station/object NB9X. If no packets are shown the sender has not sent any weather packets the latest 10 day(s).
| Time | Temp. | Humidity | Pressure | Rain* | Wind** | Luminosity | Snow |
|---|---|---|---|---|---|---|---|
| 1788296667 | 33.89° C | 100% | 1013.1 hPa | 0 mm | - | - | - |
| 1788296366 | 33.89° C | 100% | 1013 hPa | 0 mm | - | - | - |
| 1788296066 | 33.89° C | 100% | 1013 hPa | 0 mm | - | - | - |
| 1788295766 | 33.89° C | 100% | 1013 hPa | 0 mm | - | - | - |
| 1788295466 | 34.44° C | 100% | 1013.1 hPa | 0 mm | - | - | - |
| 1788295166 | 34.44° C | 100% | 1013.2 hPa | 0 mm | - | - | - |
| 1788294866 | 33.89° C | 100% | 1013.1 hPa | 0 mm | - | - | - |
| 1788294566 | 33.89° C | 100% | 1013.1 hPa | 0 mm | - | - | - |
| 1788294266 | 33.89° C | 100% | 1013.1 hPa | 0 mm | - | - | - |
| 1788293966 | 33.89° C | 100% | 1013.2 hPa | 0 mm | - | - | - |
| 1788293666 | 33.33° C | 100% | 1013.3 hPa | 0 mm | - | - | - |
| 1788293366 | 34.44° C | 100% | 1013.4 hPa | 0 mm | - | - | - |
| 1788293066 | 33.33° C | 100% | 1013.4 hPa | 0 mm | - | - | - |
| 1788292766 | 33.89° C | 100% | 1013.4 hPa | 0 mm | - | - | - |
| 1788292466 | 33.89° C | 100% | 1013.3 hPa | 0 mm | - | - | - |
| 1788292166 | 33.89° C | 100% | 1013.4 hPa | 0 mm | - | - | - |
| 1788291866 | 33.89° C | 100% | 1013.6 hPa | 0 mm | - | - | - |
| 1788291566 | 33.33° C | 100% | 1013.6 hPa | 0 mm | - | - | - |
| 1788291266 | 32.22° C | 100% | 1013.7 hPa | 0 mm | - | - | - |
| 1788290966 | 32.22° C | 100% | 1013.7 hPa | 0 mm | - | - | - |
| 1788290666 | 30.56° C | 100% | 1013.9 hPa | 0 mm | - | - | - |
| 1788290366 | 31.67° C | 100% | 1013.9 hPa | 0 mm | - | - | - |
| 1788290066 | 33.89° C | 100% | 1013.9 hPa | 0 mm | - | - | - |
| 1788289766 | 34.44° C | 100% | 1014 hPa | 0 mm | - | - | - |
| 1788289466 | 34.44° C | 100% | 1014 hPa | 0 mm | - | - | - |
* Rain latest hour (hover to see other rain measurements)
** Current wind speed in m/s (hover to see current wind gust speed)